Weather in Tak

Thailand     16°52′12″N   99°07′29″E
temp.,
°C
wind,
m/s
gust,
m/s
humid.,
%
clouds,
%
prec.,
mm/h
press.,
hPa
HPBL,
m
2 july, sat
sat201:00+21w21194100 0.9 1004576
04:00+22w31290100 0.1 1003711
07:00+22wsw279392 0.3 1004416
10:00+23w2888100 0.1 1005706
13:00+26wsw387496 0.2 10041032
16:00+26wsw3107095 0.0 10011122
19:00+24wsw31181100 0.0 1003930
22:00+23wsw31280100 0.0 1005951
3 july, sun
sun301:00+23wsw31181100 0.0 1005983
04:00+22wsw2890100 0.2 1004601
07:00+21wsw269598 0.4 1005360
10:00+25w287695 0.1 10061025
13:00+27w396854 0.1 10051206
16:00+28w4106351 0.0 10031227
19:00+24wsw3108065 0.0 1004778
22:00+22wsw298879 0.0 1007610
4 july, mon
mon401:00+21wsw2891100 0.0 1005418
04:00+21wsw2791100 0.0 1004410
07:00+23wsw148759 0.0 1005284
10:00+27wsw266699 0.1 10061164
13:00+28wsw266684 0.6 10041124
16:00+28w4769100 0.4 10021067
19:00+24wsw2691100 1.6 1004349
22:00+23wsw2991100 0.0 1006625
5 july, tue
tue501:00+22wsw279479 0.0 1005403
04:00+22wsw2693100 0.0 1004350
07:00+22wsw1392100 0.0 1006142
10:00+26w2475100 0.0 1007664
13:00+30w255969 0.1 10041361
16:00+27w3678100 1.6 1003911
19:00+24wsw2590100 2.4 1005233
22:00+22wsw2497100 0.0 1006144
6 july, wed
wed601:00+22wsw2395100 0.0 1006140
04:00+22wsw2395100 0.0 1005151
07:00+23w139283 0.0 1007136
10:00+30w245892 0.0 10071218
13:00+31wsw345979 0.8 10041473
16:00+29w357215 1.5 1004943
19:00+25w2689100 2.8 1006450
22:00+23w2795100 0.4 1008385